This is the latest recevied weather packets stored in our database for station/object K5UBE. If no packets are shown the sender has not sent any weather packets the latest 10 day(s).
| Time | Temp. | Humidity | Pressure | Rain* | Wind** | Luminosity | Snow |
|---|---|---|---|---|---|---|---|
| 1778163052 | 9.44° C | 65% | 1024.4 hPa | 0 mm | - | - | - |
| 1778162749 | 8.33° C | 69% | 1024.3 hPa | 0 mm | - | - | - |
| 1778162446 | 8.33° C | 72% | 1024.6 hPa | 0 mm | - | - | - |
| 1778162143 | 7.78° C | 75% | 1024.4 hPa | 0 mm | - | - | - |
| 1778161840 | 7.22° C | 77% | 1024.5 hPa | 0 mm | - | - | - |
| 1778161537 | 6.67° C | 79% | 1024.5 hPa | 0 mm | - | - | - |
| 1778161232 | 6.11° C | 80% | 1024.5 hPa | 0 mm | - | - | - |
| 1778160929 | 6.11° C | 81% | 1024.6 hPa | 0 mm | - | - | - |
| 1778160627 | 5.56° C | 82% | 1024.4 hPa | 0 mm | - | - | - |
| 1778160323 | 5.56° C | 83% | 1024.8 hPa | 0 mm | - | - | - |
| 1778160020 | 5° C | 84% | 1024.6 hPa | 0 mm | - | - | - |
| 1778159716 | 4.44° C | 85% | 1024.5 hPa | 0 mm | - | - | - |
| 1778159413 | 4.44° C | 86% | 1024.5 hPa | 0 mm | - | - | - |
| 1778159110 | 3.89° C | 87% | 1024.2 hPa | 0 mm | - | - | - |
| 1778158809 | 3.33° C | 87% | 1024.2 hPa | 0 mm | - | - | - |
| 1778158507 | 3.33° C | 87% | 1024.4 hPa | 0 mm | - | - | - |
| 1778158204 | 3.33° C | 87% | 1024.2 hPa | 0 mm | - | - | - |
| 1778157900 | 3.33° C | 87% | 1024.2 hPa | 0 mm | - | - | - |
| 1778157598 | 3.33° C | 87% | 1024.2 hPa | 0 mm | - | - | - |
| 1778157295 | 3.33° C | 87% | 1024.3 hPa | 0 mm | - | - | - |
| 1778156991 | 3.33° C | 87% | 1024.2 hPa | 0 mm | - | - | - |
| 1778156687 | 3.33° C | 87% | 1024.2 hPa | 0 mm | - | - | - |
| 1778156383 | 3.33° C | 87% | 1024.1 hPa | 0 mm | - | - | - |
| 1778156078 | 3.33° C | 87% | 1023.9 hPa | 0 mm | - | - | - |
| 1778155775 | 3.33° C | 87% | 1024 hPa | 0 mm | - | - | - |
* Rain latest hour (hover to see other rain measurements)
** Current wind speed in m/s (hover to see current wind gust speed)